Ankeny, IA

10:17 AM CST on December 13, 2019 (GMT -0600)
Ankeny Regional

Weather History for KIKV - November, 2019

Change the Weather History Date:

Monday, November 11, 2019

  Actual Average (WUND) Record (WUND)
Temperature  
Mean Temperature 17 °F -  
Max Temperature 26 °F - - (-1)
Min Temperature 8 °F - - (-1)
Degree Days  
Heating Degree Days 48    
Moisture  
Dew Point 10 °F    
Average Humidity 74    
Maximum Humidity 93    
Minimum Humidity 58    
Precipitation  
Precipitation 0.02 in - - ()
Sea Level Pressure  
Sea Level Pressure 30.52 in    
Wind  
Wind Speed 15 mph ()    
Max Wind Speed 24 mph    
Max Gust Speed 33 mph    
Visibility 7.4 miles    
Events Snow    
Averages and records for this station are not official NWS values.
T = Trace of Precipitation, MM = Missing Value Source: Averaged Metar Reports

Daily Weather History Graph

Daily Weather History Graph

Search for Another Location

Airport or City:

Astronomy

Nov. 11, 2019 Rise Set
Actual Time 6:58 AM CST 4:57 PM CST
Civil Twilight 6:28 AM CST 5:27 PM CST
Nautical Twilight 5:55 AM CST 6:00 PM CST
Astronomical Twilight 5:22 AM CST 6:33 PM CST
Moon 4:54 PM CST (11/11) 5:48 AM CST (11/11)
Length of Visible Light 10h 58m
Length of Day
9h 59m
Waxing Gibbous, 99% of the Moon is Illuminated
Nov 11
Waxing Gibbous
Nov 12
Full
Nov 19
Last Quarter
Nov 26
New
Dec 4
First Quarter

Hourly Weather History & Observations

Time (CST) Temp. Windchill Dew Point Humidity Pressure Visibility Wind Dir Wind Speed Gust Speed Precip Events Conditions
12:15 AM 26.6 °F 15.2 °F 24.8 °F 93% 30.29 in 0.8 mi North 13.8 mph 20.7 mph N/A Snow Light Snow
12:55 AM 26.6 °F 15.7 °F 24.8 °F 93% 30.30 in 0.5 mi North 12.7 mph 20.7 mph 0.01 in   Overcast
1:15 AM 24.8 °F 12.4 °F 23.0 °F 93% 30.32 in 0.8 mi North 15.0 mph 23.0 mph N/A Snow Light Snow
1:35 AM 24.8 °F 12.4 °F 23.0 °F 93% 30.32 in 0.8 mi North 15.0 mph 24.2 mph N/A Snow Light Snow
1:55 AM 24.8 °F 12.9 °F 23.0 °F 93% 30.33 in 0.8 mi North 13.8 mph 21.9 mph 0.01 in Snow Light Snow
2:35 AM 23.0 °F 9.6 °F 19.4 °F 86% 30.35 in 1.0 mi North 16.1 mph 26.5 mph N/A Snow Light Snow
3:15 AM 21.2 °F 5.6 °F 17.6 °F 86% 30.37 in 1.0 mi North 20.7 mph 29.9 mph N/A Snow Light Snow
3:35 AM 21.2 °F 8.9 °F 17.6 °F 86% 30.38 in 1.0 mi NNW 12.7 mph 24.2 mph N/A Snow Light Snow
4:15 AM 19.4 °F 3.2 °F 15.8 °F 86% 30.39 in 1.5 mi NNW 20.7 mph 31.1 mph N/A Snow Light Snow
4:35 AM 19.4 °F 3.6 °F 15.8 °F 86% 30.41 in 1.5 mi North 19.6 mph 29.9 mph N/A Snow Light Snow
4:55 AM 19.4 °F 3.6 °F 15.8 °F 86% 30.42 in 1.0 mi North 19.6 mph - N/A Snow Light Snow
5:15 AM 19.4 °F 5.0 °F 15.8 °F 86% 30.43 in 1.2 mi NNW 16.1 mph 25.3 mph N/A Snow Light Snow
5:35 AM 17.6 °F 3.2 °F 15.8 °F 93% 30.45 in 2.0 mi NNW 15.0 mph 24.2 mph N/A Snow Light Snow
5:55 AM 17.6 °F 2.7 °F 15.8 °F 93% 30.45 in 2.0 mi NNW 16.1 mph 25.3 mph N/A Snow Light Snow
6:15 AM 17.6 °F 0.5 °F 14.0 °F 86% 30.46 in 2.5 mi North 21.9 mph 31.1 mph N/A Snow Light Snow
6:35 AM 17.6 °F 1.3 °F 14.0 °F 86% 30.47 in 2.0 mi North 19.6 mph 31.1 mph N/A Snow Light Snow
6:55 AM 17.6 °F 2.7 °F 12.2 °F 79% 30.47 in 10.0 mi North 16.1 mph 24.2 mph N/A Snow Light Snow
7:15 AM 17.6 °F 3.7 °F 12.2 °F 79% 30.48 in 5.0 mi NNW 13.8 mph 19.6 mph N/A Snow Light Snow
7:35 AM 17.6 °F 3.2 °F 14.0 °F 86% 30.49 in 2.0 mi North 15.0 mph 26.5 mph N/A Snow Light Snow
7:55 AM 17.6 °F 1.7 °F 12.2 °F 79% 30.50 in 5.0 mi North 18.4 mph 26.5 mph N/A Snow Light Snow
8:15 AM 17.6 °F 2.2 °F 14.0 °F 86% 30.51 in 9.0 mi NNW 17.3 mph 26.5 mph N/A Snow Light Snow
8:35 AM 17.6 °F 2.2 °F 12.2 °F 79% 30.51 in 10.0 mi NNW 17.3 mph 27.6 mph N/A   Overcast
8:55 AM 19.4 °F 4.1 °F 12.2 °F 74% 30.52 in 10.0 mi North 18.4 mph 29.9 mph N/A   Overcast
9:15 AM 19.4 °F 4.1 °F 12.2 °F 74% 30.52 in 10.0 mi NNW 18.4 mph 27.6 mph N/A   Overcast
9:35 AM 19.4 °F 6.6 °F 10.4 °F 68% 30.53 in 10.0 mi NNW 12.7 mph 28.8 mph N/A Snow Light Snow
9:55 AM 19.4 °F 3.6 °F 10.4 °F 68% 30.54 in 10.0 mi NNW 19.6 mph 31.1 mph N/A   Overcast
10:15 AM 17.6 °F 3.2 °F 8.6 °F 68% 30.55 in 10.0 mi North 15.0 mph 28.8 mph N/A Snow Light Snow
10:35 AM 19.4 °F 3.2 °F 6.8 °F 58% 30.55 in 10.0 mi North 20.7 mph 33.4 mph N/A   Partly Cloudy
10:55 AM 19.4 °F 3.2 °F 8.6 °F 63% 30.55 in 10.0 mi North 20.7 mph 28.8 mph N/A Snow Light Snow
11:15 AM 19.4 °F 4.5 °F 12.2 °F 74% 30.55 in 10.0 mi NNW 17.3 mph 24.2 mph N/A   Overcast
11:35 AM 19.4 °F 3.2 °F 10.4 °F 68% 30.55 in 9.0 mi North 20.7 mph - N/A Snow Light Snow
11:55 AM 17.6 °F -0.3 °F 10.4 °F 73% 30.54 in 6.0 mi NNW 24.2 mph 31.1 mph N/A Snow Light Snow
12:15 PM 19.4 °F 3.6 °F 8.6 °F 63% 30.53 in 9.0 mi NW 19.6 mph 28.8 mph N/A Snow Light Snow
12:35 PM 17.6 °F 1.3 °F 8.6 °F 68% 30.54 in 10.0 mi NNW 19.6 mph 31.1 mph N/A   Mostly Cloudy
12:55 PM 17.6 °F 0.1 °F 6.8 °F 63% 30.54 in 10.0 mi North 23.0 mph 29.9 mph N/A   Mostly Cloudy
1:15 PM 17.6 °F 1.7 °F 8.6 °F 68% 30.54 in 6.0 mi North 18.4 mph 26.5 mph N/A Snow Light Snow
1:35 PM 19.4 °F - 8.6 °F 63% 30.54 in 10.0 mi North - - N/A   Overcast
1:55 PM 17.6 °F 2.2 °F 8.6 °F 68% 30.54 in 10.0 mi North 17.3 mph 28.8 mph N/A   Overcast
2:15 PM 17.6 °F 1.3 °F 8.6 °F 68% 30.54 in 10.0 mi NNW 19.6 mph 26.5 mph N/A   Overcast
2:35 PM 17.6 °F 0.5 °F 8.6 °F 68% 30.55 in 10.0 mi NNW 21.9 mph 28.8 mph N/A   Overcast
2:55 PM 17.6 °F 0.9 °F 6.8 °F 63% 30.55 in 10.0 mi NNW 20.7 mph 29.9 mph N/A   Overcast
3:15 PM 17.6 °F 2.2 °F 6.8 °F 63% 30.56 in 10.0 mi NNW 17.3 mph 25.3 mph N/A   Overcast
3:35 PM 17.6 °F 2.2 °F 8.6 °F 68% 30.56 in 8.0 mi NNW 17.3 mph 26.5 mph N/A Snow Light Snow
3:55 PM 17.6 °F 2.2 °F 6.8 °F 63% 30.56 in 9.0 mi NNW 17.3 mph 25.3 mph N/A Snow Light Snow
4:15 PM 17.6 °F 0.9 °F 5.0 °F 58% 30.56 in 10.0 mi NW 20.7 mph 27.6 mph N/A   Overcast
4:35 PM 15.8 °F 0.3 °F 5.0 °F 62% 30.57 in 10.0 mi NNW 16.1 mph 24.2 mph N/A   Overcast
4:55 PM 15.8 °F 0.9 °F 6.8 °F 68% 30.58 in 10.0 mi NNW 15.0 mph 23.0 mph N/A   Overcast
5:15 PM 14.0 °F -1.4 °F 5.0 °F 67% 30.58 in 10.0 mi NNW 15.0 mph - N/A   Overcast
5:35 PM 14.0 °F -0.2 °F 5.0 °F 67% 30.59 in 10.0 mi NNW 12.7 mph - N/A   Scattered Clouds
5:55 PM 14.0 °F -0.8 °F 5.0 °F 67% 30.59 in 10.0 mi NNW 13.8 mph 20.7 mph N/A   Clear
6:15 PM 14.0 °F 1.2 °F 3.2 °F 62% 30.61 in 10.0 mi NNW 10.4 mph - N/A   Scattered Clouds
6:35 PM 14.0 °F 0.5 °F 5.0 °F 67% 30.61 in 10.0 mi NNW 11.5 mph 17.3 mph N/A   Overcast
6:55 PM 14.0 °F 2.0 °F 6.8 °F 73% 30.62 in 10.0 mi NNW 9.2 mph - N/A   Overcast
7:55 PM 12.2 °F -0.2 °F 3.2 °F 67% 30.63 in 10.0 mi NNW 9.2 mph 16.1 mph N/A   Clear
8:15 PM 12.2 °F -0.2 °F 3.2 °F 67% 30.63 in 10.0 mi NNW 9.2 mph - N/A   Clear
8:35 PM 12.2 °F -2.5 °F 3.2 °F 67% 30.63 in 10.0 mi NNW 12.7 mph 18.4 mph N/A   Clear
8:55 PM 10.4 °F -5.4 °F 3.2 °F 73% 30.64 in 10.0 mi NNW 13.8 mph - N/A   Clear
9:15 PM 10.4 °F -4.8 °F 1.4 °F 67% 30.64 in 10.0 mi NNW 12.7 mph - N/A   Clear
9:35 PM 10.4 °F -5.4 °F 1.4 °F 67% 30.64 in 10.0 mi NW 13.8 mph - N/A   Clear
9:55 PM 10.4 °F -4.1 °F 1.4 °F 67% 30.65 in 10.0 mi NNW 11.5 mph - N/A   Clear
10:35 PM 8.6 °F -6.3 °F 1.4 °F 73% 30.66 in 10.0 mi NW 11.5 mph 17.3 mph N/A   Clear
10:55 PM 8.6 °F -7.0 °F 1.4 °F 73% 30.66 in 10.0 mi NNW 12.7 mph 19.6 mph N/A   Clear
11:15 PM 8.6 °F -6.3 °F 1.4 °F 73% 30.65 in 10.0 mi NNW 11.5 mph 17.3 mph N/A   Clear
11:35 PM 8.6 °F -4.7 °F 1.4 °F 73% 30.65 in 10.0 mi NNW 9.2 mph - N/A   Clear
11:55 PM 8.6 °F -2.6 °F -0.4 °F 67% 30.65 in 10.0 mi NNW 6.9 mph 16.1 mph N/A   Clear